User: anonymous   Login
Location: Caltech
(34.1382°N, 118.1253°W)
Time: 03:09:00
(UTC-07:00)
Language:

PAYLOAD A - Orbit

View from above orbital plane
View from above orbital plane
View from above satellite
View from above satellite

Ground track
Ground track

The orbit data is extracted from the following two-line orbital elements,

1 27840U 03031A   15210.53855060  .00000020  00000-0  19257-4 0  9999
2 27840 098.2065 227.1837 0099097 035.7704 116.4376 14.38815417634286
Epoch (UTC): 29 July 2015 12:55:30
Eccentricity: 0.0099097
inclination: 98.2065°
perigee height: 691 km
apogee height: 833 km
right ascension of ascending node: 227.1837°
argument of perigee: 35.7704°
revolutions per day: 14.38815417
mean anomaly at epoch: 116.4376°
orbit number at epoch: 63428

The dashed part of the orbit path shows where the satellite is in the earth's shadow,  

DLR